Weather Roundup
Issued by NWS

Home | Current Version | Previous Version | Text Only | Print | Product List | Glossary On
Versions: 1 2 3 4 5 6 7 8 9 10 11 12 13 14 15 16 17 18 19 20 21 22 23 24 25 26 27 28 29 30 31 32 33 34 35 36 37 38 39 40 41 42 43 44 45 46 47 48 49 50
000
NZUS93 KARX 160459
HRRWXR

CURRENT HOURLY OBSERVATIONS ACROSS
MUCH OF THE UPPER MISSISSIPPI VALLEY
NATIONAL WEATHER SERVICE LA CROSSE WI
1100 PM CST FRI DEC 15 2017


...SOUTHEAST MINNESOTA...


CITY           SKY/WX    TMP DP  RH WIND       PRES   REMARKS
ROCHESTER      CLOUDY    28  26  92 SE10      29.68F WCI  19
ROCHESTER/MAYO CLOUDY    31  29  92 SE9       29.70F WCI  23
WINONA         CLOUDY    30  30 100 CALM      29.76F
AUSTIN         CLOUDY    34  27  75 S6        29.69F WCI  29
ALBERT LEA     CLOUDY    34  25  69 S5        29.68F WCI  30
DODGE CENTER   CLOUDY    28  27  93 SE6       29.68F WCI  22
PRESTON        CLOUDY    29  26  87 S6        29.71F WCI  23
OWATONNA       CLOUDY    32  28  86 SE8       29.67F WCI  25
FARIBAULT      PTCLDY    30  28  93 SE7       29.66F WCI  23
$$

...ELSEWHERE IN MINNESOTA...


CITY           SKY/WX    TMP DP  RH WIND       PRES   REMARKS
MINNEAPOLIS    CLOUDY    29  28  96 SE8       29.68F FOG     WCI  21
INTNL FALLS    CLOUDY     4  -1  80 E6        29.76S WCI  -7
DULUTH         LGT SNOW  14  10  84 E6        29.72S FOG     WCI   5
RED WING       CLOUDY    30  27  86 SE7       29.70F WCI  23
REDWOOD FALLS  CLOUDY    34  30  85 SE6       29.61F WCI  29
MANKATO        CLOUDY    32  28  85 SE7       29.65  WCI  26
WORTHINGTON    CLOUDY    37  27  67 SW13      29.63F WCI  29
FAIRMONT       CLOUDY    35  26  69 S8        29.65F WCI  29
$$

...SOUTHWEST WISCONSIN...


CITY           SKY/WX    TMP DP  RH WIND       PRES   REMARKS
LA CROSSE      CLOUDY    31  29  92 SE6       29.76F WCI  25
PRAIRIE DU CHI CLOUDY    35  24  62 CALM      29.78F
BOSCOBEL       CLOUDY    30  27  88 CALM      29.79F
LONE ROCK      CLOUDY    32  28  85 E3        29.80S
PLATTEVILLE    PTCLDY    34  26  71 S8        29.80S WCI  27
FORT MC COY    LGT SNOW  28  28  99 CALM      29.78S
CAMP DOUGLAS   MOCLDY    27  25  93 E3        29.78S BLWGSNOW
MAUSTON-NEW LI LGT SNOW  29  28  96 CALM      29.78S
VIROQUA        CLOUDY    30  30 100 CALM      29.75S
WIS DELLS      MIX PCPN  29  27  92 CALM      29.78S
$$

...ELSEWHERE IN WISCONSIN...


CITY           SKY/WX    TMP DP  RH WIND       PRES   REMARKS
MILWAUKEE      CLOUDY    31  28  89 S3        29.83F
MADISON        CLOUDY    31  25  78 S6        29.81S WCI  25
GREEN BAY      CLOUDY    16   9  74 NE3       29.85S
EAU CLAIRE     LGT SNOW  22  20  92 NE3       29.75F FOG
BLACK RVR FLS  LGT SNOW  24  23  95 CALM      29.77F
MEDFORD        LGT SNOW  15  11  85 CALM      29.75S
WAUSAU         LGT SNOW  14  11  87 E5        29.77S FOG     WCI   6
WIS RAPIDS     LGT SNOW  20  15  81 E3        29.80S
MARSHFIELD     LGT SNOW  18  15  88 E5        29.75S FOG     WCI  11
RICE LAKE      LGT SNOW  19  17  92 CALM      29.76S
$$

...NORTHEAST IOWA...


CITY           SKY/WX    TMP DP  RH WIND       PRES   REMARKS
WATERLOO       CLOUDY    34  22  61 S9        29.74F WCI  27
DUBUQUE        CLOUDY    35  23  61 SW14      29.80S WCI  26
DECORAH        CLOUDY    36  27  69 S6        29.72F WCI  31
MASON CITY     CLOUDY    34  24  67 S8        29.70F WCI  27
CHARLES CITY   CLOUDY    36  25  64 S9        29.72F WCI  29
OELWEIN        CLOUDY    36  25  64 S12       29.75F WCI  27
$$

...ELSEWHERE IN IOWA...


CITY           SKY/WX    TMP DP  RH WIND       PRES   REMARKS
DES MOINES     CLOUDY    37  23  56 SW13      29.77F WCI  29
IOWA CITY      CLOUDY    37  23  56 S8        29.85F WCI  31
FORT DODGE     PTCLDY    36  24  62 SW10      29.70S WCI  28
MARSHALLTOWN   CLOUDY    36  23  59 S14       29.74F WCI  27
CEDAR RAPIDS   CLOUDY    36  22  56 S12       29.79F WCI  28
$$

...NORTHERN ILLINOIS...


CITY           SKY/WX    TMP DP  RH WIND       PRES   REMARKS
CHICAGO-OHARE  CLOUDY    37  21  52 SW13G21   29.87F WCI  29
CHICAGO-MIDWAY CLOUDY    38  22  52 SW13      29.90S WCI  30
MOLINE         CLOUDY    38  22  52 S14       29.86F WCI  30
ROCKFORD       CLOUDY    35  22  58 SW15G21   29.87S WCI  25
PEORIA         CLOUDY    34  21  59 SW12      29.96S WCI  25
$$

NOTE: "FAIR" INDICATES FEW OR NO CLOUDS BELOW 12,000 FEET WITH NO
SIGNIFICANT WEATHER AND/OR OBSTRUCTIONS TO VISIBILITY. WIND
SPEEDS ARE IN MILES-PER-HOUR.




USA.gov is the U.S. government's official web portal to all federal, state and local government web resources and services.